• In Uzbekistan
  • List of Countries
  • For 7 days
  • Water Temperature
  • Satellite Maps
  • Weather Map
  • Weather Widgets
  • user-avatar
    Login

    Hourly Weather Mauritius

    Today, 28 March, Tuesday

    Time Temperature Precipitation Wind Pressure Humidity
    00:00 +25°C° 0 mm 4 mps 724 mmHg 86%
    01:00 +25°C° 0 mm 4 mps 724 mmHg 86%
    02:00 +25°C° 0 mm 4 mps 724 mmHg 86%
    03:00 +25°C° 0 mm 4 mps 724 mmHg 87%
    04:00 +25°C° 0 mm 3 mps 724 mmHg 87%
    05:00 +25°C° 0 mm 3 mps 724 mmHg 86%
    06:00 +25°C° 0 mm 3 mps 724 mmHg 85%
    07:00 +25°C° 0 mm 3 mps 724 mmHg 84%
    08:00 +26°C° 0 mm 3 mps 725 mmHg 79%
    09:00 +27°C° 0 mm 3 mps 725 mmHg 74%
    10:00 +28°C° 0 mm 3 mps 725 mmHg 68%
    11:00 +28°C° 0 mm 3 mps 725 mmHg 68%
    12:00 +29°C° 0 mm 3 mps 725 mmHg 68%
    13:00 +29°C° 0 mm 3 mps 724 mmHg 68%
    14:00 +28°C° 0 mm 3 mps 724 mmHg 71%
    15:00 +27°C° 0 mm 3 mps 724 mmHg 74%
    16:00 +27°C° 0 mm 3 mps 723 mmHg 78%
    17:00 +26°C° 0 mm 3 mps 724 mmHg 80%
    18:00 +26°C° 0 mm 3 mps 724 mmHg 81%
    19:00 +26°C° 0 mm 3 mps 724 mmHg 83%
    20:00 +25°C° 0 mm 3 mps 724 mmHg 84%
    21:00 +25°C° 0 mm 3 mps 724 mmHg 85%
    22:00 +25°C° 0 mm 3 mps 724 mmHg 86%
    23:00 +25°C° 0 mm 3 mps 724 mmHg 86%

    Tomorrow, 29 March, Wednesday

    Time Temperature Precipitation Wind Pressure Humidity
    00:00 +25°C° 0 mm 3 mps 724 mmHg 86%
    01:00 +25°C° 0 mm 3 mps 724 mmHg 86%
    02:00 +25°C° 0.1 mm 3 mps 724 mmHg 86%
    03:00 +25°C° 0.1 mm 3 mps 723 mmHg 87%
    04:00 +25°C° 0.1 mm 3 mps 723 mmHg 87%
    05:00 +25°C° 0.1 mm 4 mps 723 mmHg 86%
    06:00 +25°C° 0.1 mm 4 mps 723 mmHg 85%
    07:00 +25°C° 0.1 mm 4 mps 724 mmHg 84%
    08:00 +26°C° 0 mm 4 mps 724 mmHg 79%
    09:00 +27°C° 0 mm 4 mps 724 mmHg 74%
    10:00 +28°C° 0 mm 4 mps 725 mmHg 69%
    11:00 +28°C° 0 mm 4 mps 724 mmHg 68%
    12:00 +29°C° 0 mm 4 mps 724 mmHg 66%
    13:00 +29°C° 0 mm 4 mps 724 mmHg 65%
    14:00 +29°C° 0 mm 4 mps 723 mmHg 66%
    15:00 +28°C° 0 mm 4 mps 723 mmHg 66%
    16:00 +28°C° 0 mm 4 mps 723 mmHg 67%
    17:00 +27°C° 0 mm 4 mps 723 mmHg 71%
    18:00 +26°C° 0 mm 4 mps 723 mmHg 75%
    19:00 +25°C° 0 mm 3 mps 724 mmHg 80%
    20:00 +25°C° 0.1 mm 4 mps 724 mmHg 81%
    21:00 +25°C° 0.1 mm 4 mps 725 mmHg 82%
    22:00 +25°C° 0.1 mm 4 mps 725 mmHg 84%
    23:00 +25°C° 0.1 mm 4 mps 725 mmHg 83%

    Day after tomorrow, 30 March, Thursday

    Time Temperature Precipitation Wind Pressure Humidity
    00:00 +25°C° 0.1 mm 4 mps 724 mmHg 83%
    01:00 +25°C° 0.1 mm 4 mps 724 mmHg 83%
    02:00 +25°C° 0.2 mm 4 mps 724 mmHg 83%
    03:00 +25°C° 0.2 mm 4 mps 724 mmHg 83%
    04:00 +25°C° 0.2 mm 4 mps 723 mmHg 83%
    05:00 +25°C° 0.7 mm 4 mps 724 mmHg 84%
    06:00 +25°C° 0.7 mm 5 mps 724 mmHg 84%
    07:00 +25°C° 0.7 mm 5 mps 724 mmHg 85%
    08:00 +25°C° 0.6 mm 5 mps 725 mmHg 81%
    09:00 +26°C° 0.6 mm 6 mps 725 mmHg 77%
    10:00 +27°C° 0.6 mm 6 mps 725 mmHg 74%
    11:00 +27°C° 0.3 mm 6 mps 725 mmHg 73%
    12:00 +27°C° 0.3 mm 6 mps 725 mmHg 72%
    13:00 +28°C° 0.3 mm 5 mps 724 mmHg 71%
    14:00 +28°C° 0.4 mm 5 mps 724 mmHg 71%
    15:00 +27°C° 0.4 mm 5 mps 724 mmHg 71%
    16:00 +27°C° 0.4 mm 5 mps 724 mmHg 72%
    17:00 +26°C° 0.3 mm 5 mps 724 mmHg 75%
    18:00 +26°C° 0.3 mm 5 mps 724 mmHg 79%
    19:00 +25°C° 0.3 mm 5 mps 725 mmHg 82%
    20:00 +25°C° 0.2 mm 5 mps 725 mmHg 82%
    21:00 +24°C° 0.2 mm 6 mps 725 mmHg 83%
    22:00 +24°C° 0.2 mm 6 mps 726 mmHg 83%
    23:00 +24°C° 0.2 mm 6 mps 726 mmHg 83%

    31 March, Friday

    Time Temperature Precipitation Wind Pressure Humidity
    00:00 +24°C° 0.2 mm 6 mps 725 mmHg 83%
    01:00 +24°C° 0.2 mm 6 mps 725 mmHg 83%
    02:00 +23°C° 0.2 mm 6 mps 725 mmHg 83%
    03:00 +23°C° 0.2 mm 6 mps 725 mmHg 84%
    04:00 +23°C° 0.2 mm 6 mps 724 mmHg 84%
    05:00 +23°C° 0.1 mm 6 mps 725 mmHg 83%
    06:00 +23°C° 0.1 mm 6 mps 725 mmHg 82%
    07:00 +23°C° 0.1 mm 6 mps 725 mmHg 81%
    08:00 +24°C° 0 mm 6 mps 726 mmHg 78%
    09:00 +26°C° 0 mm 6 mps 726 mmHg 74%
    10:00 +27°C° 0 mm 7 mps 726 mmHg 71%
    11:00 +27°C° 0 mm 6 mps 726 mmHg 69%
    12:00 +28°C° 0 mm 6 mps 725 mmHg 67%
    13:00 +28°C° 0 mm 6 mps 725 mmHg 65%
    14:00 +28°C° 0 mm 6 mps 725 mmHg 66%
    15:00 +27°C° 0 mm 6 mps 725 mmHg 67%
    16:00 +27°C° 0 mm 6 mps 724 mmHg 69%
    17:00 +26°C° 0.1 mm 6 mps 725 mmHg 73%
    18:00 +24°C° 0.1 mm 6 mps 725 mmHg 77%
    19:00 +24°C° 0.1 mm 6 mps 725 mmHg 80%
    20:00 +24°C° 0.1 mm 6 mps 726 mmHg 81%
    21:00 +24°C° 0.1 mm 7 mps 726 mmHg 81%
    22:00 +24°C° 0.1 mm 7 mps 726 mmHg 81%
    23:00 +24°C° 0 mm 7 mps 726 mmHg 81%

    1 April, Saturday

    Time Temperature Precipitation Wind Pressure Humidity
    00:00 +24°C° 0 mm 7 mps 726 mmHg 81%
    01:00 +24°C° 0 mm 7 mps 725 mmHg 81%
    02:00 +24°C° 0 mm 7 mps 725 mmHg 81%
    03:00 +24°C° 0 mm 7 mps 725 mmHg 81%
    04:00 +23°C° 0 mm 7 mps 725 mmHg 82%
    05:00 +24°C° 0 mm 7 mps 725 mmHg 82%
    06:00 +24°C° 0 mm 7 mps 725 mmHg 81%
    07:00 +24°C° 0 mm 7 mps 725 mmHg 81%
    08:00 +26°C° 0 mm 7 mps 726 mmHg 77%
    09:00 +27°C° 0 mm 7 mps 726 mmHg 74%
    10:00 +27°C° 0 mm 7 mps 726 mmHg 70%
    11:00 +28°C° 0 mm 7 mps 726 mmHg 68%
    12:00 +28°C° 0 mm 7 mps 725 mmHg 67%
    13:00 +28°C° 0 mm 6 mps 725 mmHg 66%
    14:00 +28°C° 0 mm 6 mps 725 mmHg 67%
    15:00 +28°C° 0 mm 6 mps 725 mmHg 69%
    16:00 +27°C° 0 mm 6 mps 724 mmHg 71%
    17:00 +27°C° 0.1 mm 6 mps 725 mmHg 74%
    18:00 +26°C° 0.1 mm 6 mps 725 mmHg 77%
    19:00 +24°C° 0.1 mm 6 mps 725 mmHg 80%
    20:00 +24°C° 0.3 mm 6 mps 726 mmHg 80%
    21:00 +24°C° 0.3 mm 6 mps 726 mmHg 79%
    22:00 +24°C° 0.3 mm 6 mps 726 mmHg 79%
    23:00 +24°C° 0.2 mm 7 mps 726 mmHg 80%

    2 April, Sunday

    Time Temperature Precipitation Wind Pressure Humidity
    00:00 +24°C° 0.2 mm 7 mps 726 mmHg 81%
    01:00 +24°C° 0.2 mm 7 mps 725 mmHg 83%
    02:00 +24°C° 0.2 mm 7 mps 725 mmHg 83%
    03:00 +24°C° 0.2 mm 7 mps 725 mmHg 83%
    04:00 +24°C° 0.2 mm 7 mps 725 mmHg 83%
    05:00 +24°C° 0.1 mm 7 mps 725 mmHg 82%
    06:00 +24°C° 0.1 mm 7 mps 725 mmHg 81%
    07:00 +24°C° 0.1 mm 7 mps 726 mmHg 79%
    08:00 +26°C° 0 mm 7 mps 726 mmHg 76%
    09:00 +27°C° 0 mm 6 mps 726 mmHg 72%
    10:00 +27°C° 0 mm 6 mps 726 mmHg 69%
    11:00 +28°C° 0.2 mm 6 mps 725 mmHg 68%
    12:00 +28°C° 0.2 mm 6 mps 725 mmHg 68%
    13:00 +28°C° 0.2 mm 6 mps 725 mmHg 67%
    14:00 +27°C° 0.5 mm 7 mps 724 mmHg 72%
    15:00 +26°C° 0.5 mm 7 mps 724 mmHg 77%
    16:00 +24°C° 0.5 mm 7 mps 724 mmHg 82%
    17:00 +24°C° 0.2 mm 7 mps 724 mmHg 82%
    18:00 +24°C° 0.2 mm 7 mps 725 mmHg 83%
    19:00 +24°C° 0.2 mm 7 mps 725 mmHg 83%
    20:00 +24°C° 0 mm 7 mps 725 mmHg 83%
    21:00 +24°C° 0 mm 7 mps 725 mmHg 83%
    22:00 +24°C° 0 mm 7 mps 726 mmHg 83%
    23:00 +24°C° 0 mm 7 mps 725 mmHg 83%
    Show more